Mount Pleasant, MI

6:20 AM EDT on August 28, 2016 (GMT -0400)
Mount Pleasant Municipal

Weather History for KMOP - October, 2013

Change the Weather History Date:

Thursday, October 24, 2013

  Actual Average (KAMN) Record (KAMN)
Temperature  
Mean Temperature 38 °F -  
Max Temperature 47 °F 57 °F 77 °F (1975)
Min Temperature 30 °F 37 °F 20 °F (1981)
Degree Days  
Heating Degree Days 26    
Moisture  
Dew Point 30 °F    
Average Humidity 76    
Maximum Humidity 94    
Minimum Humidity 47    
Precipitation  
Precipitation 0.00 in - - ()
Sea Level Pressure  
Sea Level Pressure 30.00 in    
Wind  
Wind Speed 7 mph (West)    
Max Wind Speed 16 mph    
Max Gust Speed 23 mph    
Visibility 10 miles    
Events      
Averages and records for this station are not official NWS values.
T = Trace of Precipitation, MM = Missing Value Source: NWS Daily Summary

Daily Weather History Graph

Daily Weather History Graph

Search for Another Location

Airport or City:

Trip Planner

Search our weather history database for the weather conditions in past years. The results will help you decide how hot, cold, wet, or windy it might be!

Date:

Astronomy

Oct. 24, 2013 Rise Set
Actual Time 8:04 AM EDT 6:40 PM EDT
Civil Twilight 7:35 AM EDT 7:10 PM EDT
Nautical Twilight 7:01 AM EDT 7:43 PM EDT
Astronomical Twilight 6:28 AM EDT 8:16 PM EDT
Moon 11:00 PM EDT (10/24) 1:09 PM EDT (10/24)
Length of Visible Light 11h 34m
Length of Day
10h 36m
Waning Gibbous, 71% of the Moon is Illuminated
Oct 24
Waning Gibbous
Oct 26
Last Quarter
Nov 3
New
Nov 10
First Quarter
Nov 17
Full

Hourly Weather History & Observations

Time (EDT) Temp. Windchill Dew Point Humidity Pressure Visibility Wind Dir Wind Speed Gust Speed Precip Events Conditions
12:15 AM 34.7 °F 28.8 °F 30.4 °F 84% 29.89 in 10.0 mi West 6.9 mph - N/A   Overcast
12:36 AM 34.7 °F 28.8 °F 30.7 °F 85% 29.89 in 10.0 mi West 6.9 mph - N/A   Overcast
12:56 AM 34.7 °F 29.6 °F 31.1 °F 87% 29.89 in 10.0 mi West 5.8 mph - N/A   Overcast
1:15 AM 34.3 °F 29.2 °F 31.1 °F 88% 29.89 in 10.0 mi WSW 5.8 mph - N/A   Overcast
1:36 AM 34.3 °F 28.4 °F 31.5 °F 89% 29.89 in 10.0 mi West 6.9 mph - N/A   Overcast
1:56 AM 34.7 °F 28.1 °F 31.3 °F 87% 29.89 in 10.0 mi West 8.1 mph - N/A   Overcast
2:15 AM 34.7 °F 28.8 °F 31.1 °F 87% 29.90 in 10.0 mi WSW 6.9 mph - N/A   Overcast
2:36 AM 34.7 °F 28.8 °F 31.1 °F 87% 29.90 in 10.0 mi WSW 6.9 mph - N/A   Overcast
2:56 AM 34.7 °F 28.1 °F 31.1 °F 87% 29.90 in 10.0 mi WSW 8.1 mph - N/A   Overcast
3:16 AM 34.7 °F 28.8 °F 31.5 °F 88% 29.90 in 10.0 mi WSW 6.9 mph - N/A   Overcast
3:36 AM 34.7 °F 29.6 °F 31.5 °F 88% 29.90 in 10.0 mi WSW 5.8 mph - N/A   Overcast
3:56 AM 34.2 °F 29.0 °F 31.1 °F 89% 29.90 in 10.0 mi WSW 5.8 mph - N/A   Mostly Cloudy
4:16 AM 33.8 °F 28.6 °F 30.9 °F 89% 29.90 in 10.0 mi WSW 5.8 mph - N/A   Mostly Cloudy
4:36 AM 34.0 °F 28.8 °F 31.1 °F 89% 29.91 in 10.0 mi WSW 5.8 mph - N/A   Overcast
4:56 AM 34.0 °F 29.8 °F 31.1 °F 89% 29.91 in 10.0 mi West 4.6 mph - N/A   Mostly Cloudy
5:16 AM 33.1 °F 28.7 °F 30.6 °F 90% 29.91 in 10.0 mi SW 4.6 mph - N/A   Scattered Clouds
5:36 AM 32.0 °F 26.4 °F 29.8 °F 92% 29.92 in 10.0 mi SW 5.8 mph - N/A   Scattered Clouds
5:56 AM 32.0 °F 26.4 °F 30.0 °F 92% 29.92 in 10.0 mi WSW 5.8 mph - N/A   Scattered Clouds
6:16 AM 32.0 °F 26.4 °F 29.8 °F 92% 29.92 in 10.0 mi WSW 5.8 mph - N/A   Clear
6:36 AM 31.5 °F 25.8 °F 29.7 °F 93% 29.93 in 10.0 mi WSW 5.8 mph - N/A   Clear
6:56 AM 31.1 °F 25.4 °F 29.3 °F 93% 29.93 in 10.0 mi WSW 5.8 mph - N/A   Clear
7:16 AM 30.7 °F 26.0 °F 28.9 °F 93% 29.94 in 10.0 mi WSW 4.6 mph - N/A   Clear
7:36 AM 30.2 °F 26.7 °F 28.4 °F 93% 29.94 in 10.0 mi WSW 3.5 mph - N/A   Clear
7:56 AM 30.7 °F 24.9 °F 28.9 °F 93% 29.94 in 10.0 mi WSW 5.8 mph - N/A   Clear
8:16 AM 30.9 °F 26.2 °F 28.9 °F 92% 29.95 in 10.0 mi WSW 4.6 mph - N/A   Clear
8:36 AM 31.5 °F 26.8 °F 29.3 °F 92% 29.96 in 10.0 mi West 4.6 mph - N/A   Clear
8:56 AM 32.0 °F 26.4 °F 30.4 °F 94% 29.96 in 10.0 mi West 5.8 mph - N/A   Clear
9:16 AM 33.3 °F 27.9 °F 30.9 °F 91% 29.97 in 10.0 mi West 5.8 mph - N/A   Scattered Clouds
9:36 AM 34.5 °F 28.6 °F 31.6 °F 89% 29.98 in 10.0 mi West 6.9 mph - N/A   Mostly Cloudy
9:56 AM 35.6 °F 29.2 °F 32.0 °F 87% 29.98 in 10.0 mi West 8.1 mph - N/A   Scattered Clouds
10:16 AM 36.1 °F 29.9 °F 31.6 °F 84% 29.98 in 10.0 mi West 8.1 mph - N/A   Mostly Cloudy
10:36 AM 37.6 °F 31.6 °F 32.0 °F 80% 29.99 in 10.0 mi West 8.1 mph - N/A   Mostly Cloudy
10:56 AM 39.0 °F 32.8 °F 32.0 °F 76% 29.99 in 10.0 mi WSW 9.2 mph - N/A   Mostly Cloudy
11:16 AM 40.6 °F 34.3 °F 32.0 °F 71% 29.99 in 10.0 mi WNW 10.4 mph - N/A   Mostly Cloudy
11:36 AM 42.3 °F 36.3 °F 32.0 °F 67% 30.00 in 10.0 mi West 10.4 mph - N/A   Scattered Clouds
11:56 AM 42.3 °F 37.3 °F 31.6 °F 66% 30.00 in 10.0 mi West 8.1 mph - N/A   Scattered Clouds
12:16 PM 44.4 °F 38.6 °F 31.8 °F 61% 30.01 in 10.0 mi West 11.5 mph 17.3 mph N/A   Scattered Clouds
12:36 PM 42.8 °F 36.2 °F 30.9 °F 63% 30.01 in 10.0 mi West 12.7 mph 17.3 mph N/A   Mostly Cloudy
12:56 PM 43.9 °F 37.2 °F 31.3 °F 61% 30.01 in 10.0 mi West 13.8 mph 18.4 mph N/A   Scattered Clouds
1:16 PM 43.7 °F 37.7 °F 30.9 °F 61% 30.01 in 10.0 mi West 11.5 mph 17.3 mph N/A   Scattered Clouds
1:36 PM 45.7 °F 40.6 °F 31.5 °F 58% 30.01 in 10.0 mi WNW 10.4 mph 18.4 mph N/A   Scattered Clouds
1:56 PM 46.0 °F 40.6 °F 30.4 °F 54% 30.01 in 10.0 mi West 11.5 mph 16.1 mph N/A   Mostly Cloudy
2:16 PM 43.9 °F 37.9 °F 29.3 °F 57% 30.01 in 10.0 mi West 11.5 mph 16.1 mph N/A   Mostly Cloudy
2:36 PM 45.7 °F 40.6 °F 29.8 °F 54% 30.01 in 10.0 mi West 10.4 mph 16.1 mph N/A   Scattered Clouds
2:56 PM 46.6 °F - 29.3 °F 51% 30.01 in 10.0 mi West 13.8 mph 21.9 mph N/A   Scattered Clouds
3:16 PM 47.1 °F - 29.3 °F 50% 30.01 in 10.0 mi West 10.4 mph 18.4 mph N/A   Mostly Cloudy
3:36 PM 45.9 °F 39.7 °F 27.7 °F 49% 30.02 in 10.0 mi West 13.8 mph 23.0 mph N/A   Scattered Clouds
3:55 PM 46.2 °F 41.2 °F 27.9 °F 49% 30.03 in 10.0 mi West 10.4 mph 19.6 mph N/A   Clear
4:16 PM 46.6 °F - 27.3 °F 47% 30.03 in 10.0 mi West 16.1 mph 21.9 mph N/A   Scattered Clouds
4:36 PM 44.6 °F 39.2 °F 27.5 °F 51% 30.04 in 10.0 mi West 10.4 mph 17.3 mph N/A   Mostly Cloudy
4:55 PM 43.0 °F 39.5 °F 30.2 °F 61% 30.05 in 10.0 mi NW 5.8 mph - N/A   Mostly Cloudy
5:16 PM 41.9 °F 35.9 °F 30.7 °F 65% 30.06 in 10.0 mi NW 10.4 mph 16.1 mph N/A   Mostly Cloudy
5:35 PM 41.5 °F 37.1 °F 30.2 °F 64% 30.06 in 10.0 mi West 6.9 mph - N/A   Mostly Cloudy
5:56 PM 41.5 °F 36.4 °F 27.5 °F 57% 30.06 in 10.0 mi West 8.1 mph - N/A   Scattered Clouds
6:16 PM 41.4 °F 36.2 °F 27.5 °F 58% 30.07 in 10.0 mi West 8.1 mph 16.1 mph N/A   Clear
6:35 PM 40.3 °F 36.3 °F 27.5 °F 60% 30.08 in 10.0 mi West 5.8 mph - N/A   Clear
6:56 PM 39.6 °F 35.4 °F 28.0 °F 63% 30.09 in 10.0 mi West 5.8 mph - N/A   Clear
7:16 PM 38.3 °F 33.2 °F 28.2 °F 67% 30.09 in 10.0 mi West 6.9 mph - N/A   Clear
7:35 PM 37.8 °F 33.3 °F 28.2 °F 68% 30.10 in 10.0 mi West 5.8 mph - N/A   Clear
7:56 PM 37.4 °F 33.8 °F 28.4 °F 70% 30.11 in 10.0 mi West 4.6 mph - N/A   Clear
8:16 PM 36.3 °F 32.5 °F 28.2 °F 72% 30.11 in 10.0 mi WSW 4.6 mph - N/A   Clear
8:35 PM 35.1 °F 30.1 °F 28.4 °F 77% 30.11 in 10.0 mi WSW 5.8 mph - N/A   Clear
8:56 PM 34.9 °F 30.8 °F 28.6 °F 78% 30.12 in 10.0 mi WSW 4.6 mph - N/A   Clear
9:16 PM 34.7 °F 29.6 °F 28.4 °F 78% 30.12 in 10.0 mi WSW 5.8 mph - N/A   Clear
9:35 PM 34.3 °F 30.2 °F 28.4 °F 79% 30.12 in 10.0 mi WSW 4.6 mph - N/A   Clear
9:56 PM 34.3 °F 29.2 °F 28.4 °F 79% 30.13 in 10.0 mi West 5.8 mph - N/A   Scattered Clouds
10:16 PM 34.0 °F 29.8 °F 28.4 °F 80% 30.13 in 10.0 mi West 4.6 mph - N/A   Scattered Clouds
10:35 PM 33.8 °F 29.6 °F 28.8 °F 82% 30.13 in 10.0 mi WSW 4.6 mph - N/A   Clear
10:56 PM 32.9 °F 27.5 °F 28.6 °F 84% 30.14 in 10.0 mi WSW 5.8 mph - N/A   Clear
11:16 PM 32.5 °F 27.1 °F 28.9 °F 87% 30.14 in 10.0 mi WSW 5.8 mph - N/A   Clear
11:35 PM 32.0 °F 27.5 °F 28.8 °F 88% 30.14 in 10.0 mi WSW 4.6 mph - N/A   Clear
11:56 PM 32.0 °F 26.4 °F 28.9 °F 88% 30.15 in 10.0 mi WSW 5.8 mph - N/A   Clear